| time (UTC) | temp F | wind direction | speed MPH | gust MPH | rain 1hr in | rain 24hr in | rain mn in | humidity % | barometer mb |
| 20260902150125 | 69 | 209 | 3.0 | 13.0 | 0.00 | 0.00 | 0.00 | 70 | 1019.0 |
| 20260902145641 | 69 | 218 | 4.0 | 13.0 | 0.00 | 0.00 | 0.00 | 69 | 1019.1 |
| 20260902145143 | 70 | 293 | 4.0 | 8.0 | 0.00 | 0.00 | 0.00 | 70 | 1019.0 |
| 20260902144620 | 70 | 179 | 5.0 | 7.0 | 0.00 | 0.00 | 0.00 | 68 | 1019.0 |
| 20260902144122 | 70 | 229 | 3.0 | 9.0 | 0.00 | 0.00 | 0.00 | 70 | 1019.0 |
| 20260902143637 | 71 | 240 | 4.0 | 9.0 | 0.00 | 0.00 | 0.00 | 69 | 1019.0 |
| 20260902143117 | 71 | 180 | 3.0 | 7.0 | 0.00 | 0.00 | 0.00 | 69 | 1019.0 |
| 20260902142626 | 71 | 205 | 3.0 | 9.0 | 0.00 | 0.00 | 0.00 | 68 | 1019.0 |
| 20260902142115 | 71 | 137 | 3.0 | 16.0 | 0.00 | 0.00 | 0.00 | 67 | 1019.0 |
| 20260902141632 | 71 | 253 | 3.0 | 16.0 | 0.00 | 0.00 | 0.00 | 69 | 1019.0 |
| 20260902141126 | 71 | 294 | 3.0 | 10.0 | 0.00 | 0.00 | 0.00 | 69 | 1019.0 |
| 20260902140638 | 71 | 295 | 1.0 | 10.0 | 0.00 | 0.00 | 0.00 | 69 | 1018.9 |
| 20260902140106 | 72 | 278 | 4.0 | 8.0 | 0.00 | 0.00 | 0.00 | 66 | 1018.9 |
| 20260902135638 | 73 | 211 | 3.0 | 8.0 | 0.00 | 0.00 | 0.00 | 66 | 1018.9 |
| 20260902135138 | 73 | 142 | 3.0 | 12.0 | 0.00 | 0.00 | 0.00 | 65 | 1018.9 |
| 20260902134632 | 73 | 239 | 3.0 | 12.0 | 0.00 | 0.00 | 0.00 | 65 | 1018.8 |
| 20260902134115 | 73 | 189 | 3.0 | 8.0 | 0.00 | 0.00 | 0.00 | 67 | 1018.8 |
| 20260902133615 | 72 | 175 | 3.0 | 7.0 | 0.00 | 0.00 | 0.00 | 66 | 1019.0 |
| 20260902133137 | 72 | 256 | 3.0 | 7.0 | 0.00 | 0.00 | 0.00 | 66 | 1019.0 |
| 20260902132629 | 72 | 244 | 3.0 | 9.0 | 0.00 | 0.00 | 0.00 | 66 | 1019.0 |
| 20260902132115 | 73 | 238 | 3.0 | 6.0 | 0.00 | 0.00 | 0.00 | 67 | 1019.0 |
| 20260902131620 | 73 | 268 | 3.0 | 10.0 | 0.00 | 0.00 | 0.00 | 66 | 1019.0 |
| 20260902131149 | 72 | 250 | 4.0 | 10.0 | 0.00 | 0.00 | 0.00 | 66 | 1019.0 |
| 20260902130622 | 71 | 331 | 3.0 | 8.0 | 0.00 | 0.00 | 0.00 | 69 | 1019.0 |
| 20260902130139 | 71 | 150 | 2.0 | 8.0 | 0.00 | 0.00 | 0.00 | 67 | 1019.0 |
| 20260902125621 | 71 | 228 | 3.0 | 7.0 | 0.00 | 0.00 | 0.00 | 68 | 1019.1 |
| 20260902125108 | 71 | 146 | 3.0 | 7.0 | 0.00 | 0.00 | 0.00 | 66 | 1019.1 |
| 20260902124613 | 72 | 59 | 2.0 | 8.0 | 0.00 | 0.00 | 0.00 | 68 | 1019.1 |
| 20260902124124 | 71 | 218 | 3.0 | 9.0 | 0.00 | 0.00 | 0.00 | 69 | 1019.0 |
| 20260902123632 | 71 | 171 | 3.0 | 8.0 | 0.00 | 0.00 | 0.00 | 66 | 1019.0 |
| 20260902123115 | 71 | 230 | 3.0 | 8.0 | 0.00 | 0.00 | 0.00 | 69 | 1019.0 |
| 20260902122618 | 71 | 149 | 3.0 | 7.0 | 0.00 | 0.00 | 0.00 | 69 | 1019.0 |
| 20260902122132 | 70 | 266 | 2.0 | 6.0 | 0.00 | 0.00 | 0.00 | 70 | 1019.1 |
| 20260902121642 | 70 | 178 | 2.0 | 6.0 | 0.00 | 0.00 | 0.00 | 69 | 1019.1 |
| 20260902121154 | 70 | 269 | 3.0 | 11.0 | 0.00 | 0.00 | 0.00 | 69 | 1019.1 |
| 20260902120625 | 69 | 263 | 3.0 | 10.0 | 0.00 | 0.00 | 0.00 | 72 | 1019.1 |
| 20260902120114 | 69 | 220 | 3.0 | 9.0 | 0.00 | 0.00 | 0.00 | 72 | 1019.1 |
| 20260902115640 | 70 | 194 | 2.0 | 9.0 | 0.00 | 0.00 | 0.00 | 73 | 1019.2 |
| 20260902115126 | 70 | 203 | 3.0 | 9.0 | 0.00 | 0.00 | 0.00 | 75 | 1019.3 |
| 20260902114633 | 69 | 184 | 2.0 | 9.0 | 0.00 | 0.00 | 0.00 | 75 | 1019.2 |
| 20260902114150 | 69 | 233 | 2.0 | 9.0 | 0.00 | 0.00 | 0.00 | 77 | 1019.2 |
| 20260902113618 | 69 | 271 | 2.0 | 8.0 | 0.00 | 0.00 | 0.00 | 77 | 1019.2 |
| 20260902113145 | 69 | 280 | 2.0 | 4.0 | 0.00 | 0.00 | 0.00 | 78 | 1019.3 |
| 20260902112631 | 68 | 209 | 1.0 | 6.0 | 0.00 | 0.00 | 0.00 | 79 | 1019.4 |
| 20260902112126 | 68 | 224 | 3.0 | 6.0 | 0.00 | 0.00 | 0.00 | 79 | 1019.4 |
| 20260902111641 | 68 | 200 | 2.0 | 5.0 | 0.00 | 0.00 | 0.00 | 80 | 1019.4 |
| 20260902111113 | 67 | 207 | 2.0 | 7.0 | 0.00 | 0.00 | 0.00 | 80 | 1019.5 |
| 20260902110645 | 67 | 196 | 2.0 | 6.0 | 0.00 | 0.00 | 0.00 | 80 | 1019.4 |
| 20260902110135 | 67 | 237 | 2.0 | 6.0 | 0.00 | 0.00 | 0.00 | 81 | 1019.5 |
| 20260902105622 | 67 | 287 | 1.0 | 6.0 | 0.00 | 0.00 | 0.00 | 80 | 1019.4 |
| 20260902105112 | 68 | 347 | 2.0 | 6.0 | 0.00 | 0.00 | 0.00 | 80 | 1019.3 |
| 20260902104643 | 68 | 306 | 2.0 | 6.0 | 0.00 | 0.00 | 0.00 | 79 | 1019.3 |
| 20260902104131 | 68 | 194 | 3.0 | 8.0 | 0.00 | 0.00 | 0.00 | 79 | 1019.3 |
| 20260902103642 | 68 | 205 | 3.0 | 8.0 | 0.00 | 0.00 | 0.00 | 79 | 1019.3 |
| 20260902103122 | 68 | 323 | 3.0 | 8.0 | 0.00 | 0.00 | 0.00 | 78 | 1019.2 |
| 20260902102620 | 69 | 205 | 4.0 | 9.0 | 0.00 | 0.00 | 0.00 | 76 | 1019.2 |
| 20260902102134 | 69 | 234 | 4.0 | 10.0 | 0.00 | 0.00 | 0.00 | 76 | 1019.3 |
| 20260902101647 | 70 | 187 | 4.0 | 12.0 | 0.00 | 0.00 | 0.00 | 76 | 1019.3 |
| 20260902101159 | 70 | 267 | 5.0 | 12.0 | 0.00 | 0.00 | 0.00 | 77 | 1019.3 |
| 20260902100620 | 68 | 243 | 5.0 | 12.0 | 0.00 | 0.00 | 0.00 | 80 | 1019.3 |
| 20260902100133 | 69 | 197 | 4.0 | 12.0 | 0.00 | 0.00 | 0.00 | 78 | 1019.2 |
| 20260902095625 | 69 | 205 | 4.0 | 7.0 | 0.00 | 0.00 | 0.00 | 78 | 1019.2 |
| 20260902095111 | 69 | 229 | 2.0 | 8.0 | 0.00 | 0.00 | 0.00 | 80 | 1019.2 |
| 20260902094627 | 68 | 205 | 5.0 | 8.0 | 0.00 | 0.00 | 0.00 | 80 | 1019.1 |
| 20260902094137 | 68 | 134 | 4.0 | 9.0 | 0.00 | 0.00 | 0.00 | 80 | 1019.1 |
| 20260902093621 | 67 | 205 | 4.0 | 11.0 | 0.00 | 0.00 | 0.00 | 80 | 1019.2 |
| 20260902093127 | 68 | 227 | 6.0 | 11.0 | 0.00 | 0.00 | 0.00 | 80 | 1019.2 |
| 20260902092637 | 68 | 88 | 5.0 | 9.0 | 0.00 | 0.00 | 0.00 | 80 | 1019.1 |
| 20260902092111 | 68 | 220 | 2.0 | 7.0 | 0.00 | 0.00 | 0.00 | 82 | 1019.3 |
| 20260902091615 | 68 | 220 | 2.0 | 10.0 | 0.00 | 0.00 | 0.00 | 82 | 1019.3 |
| 20260902091144 | 67 | 219 | 6.0 | 10.0 | 0.00 | 0.00 | 0.00 | 81 | 1019.3 |
| 20260902090635 | 67 | 202 | 5.0 | 10.0 | 0.00 | 0.00 | 0.00 | 82 | 1019.2 |
| 20260902090143 | 67 | 167 | 5.0 | 10.0 | 0.00 | 0.00 | 0.00 | 83 | 1019.2 |
| 20260902085620 | 67 | 223 | 5.0 | 9.0 | 0.00 | 0.00 | 0.00 | 83 | 1019.3 |
| 20260902085120 | 66 | 167 | 3.0 | 7.0 | 0.00 | 0.00 | 0.00 | 84 | 1019.2 |
| 20260902084627 | 66 | 222 | 4.0 | 7.0 | 0.00 | 0.00 | 0.00 | 85 | 1019.2 |
| 20260902084129 | 65 | 238 | 3.0 | 8.0 | 0.00 | 0.00 | 0.00 | 85 | 1019.1 |
| 20260902083639 | 65 | 180 | 5.0 | 8.0 | 0.00 | 0.00 | 0.00 | 85 | 1019.1 |
| 20260902083125 | 65 | 207 | 2.0 | 7.0 | 0.00 | 0.00 | 0.00 | 87 | 1019.0 |
| 20260902082635 | 65 | 203 | 3.0 | 6.0 | 0.00 | 0.00 | 0.00 | 86 | 1018.9 |
| 20260902082131 | 64 | 214 | 3.0 | 6.0 | 0.00 | 0.00 | 0.00 | 87 | 1018.8 |
| 20260902081626 | 64 | 224 | 3.0 | 6.0 | 0.00 | 0.00 | 0.00 | 87 | 1018.8 |
| 20260902081113 | 64 | 198 | 3.0 | 7.0 | 0.00 | 0.00 | 0.00 | 87 | 1018.8 |
| 20260902080621 | 64 | 221 | 3.0 | 7.0 | 0.00 | 0.00 | 0.00 | 88 | 1018.7 |
| 20260902080117 | 64 | 204 | 1.0 | 5.0 | 0.00 | 0.00 | 0.00 | 88 | 1018.8 |
| 20260902075631 | 63 | 200 | 2.0 | 7.0 | 0.00 | 0.00 | 0.00 | 89 | 1018.8 |
| 20260902075121 | 63 | 207 | 4.0 | 7.0 | 0.00 | 0.00 | 0.00 | 88 | 1018.8 |
| 20260902074614 | 63 | 160 | 4.0 | 8.0 | 0.00 | 0.00 | 0.00 | 88 | 1018.8 |
| 20260902074105 | 63 | 205 | 3.0 | 8.0 | 0.00 | 0.00 | 0.00 | 88 | 1018.8 |
| 20260902073635 | 63 | 227 | 4.0 | 6.0 | 0.00 | 0.00 | 0.00 | 88 | 1018.8 |
| 20260902073112 | 63 | 205 | 2.0 | 7.0 | 0.00 | 0.00 | 0.00 | 89 | 1018.5 |
| 20260902072612 | 62 | 227 | 3.0 | 7.0 | 0.00 | 0.00 | 0.00 | 89 | 1018.6 |
| 20260902072113 | 62 | 213 | 4.0 | 7.0 | 0.00 | 0.00 | 0.00 | 89 | 1018.6 |
| 20260902071627 | 62 | 261 | 3.0 | 6.0 | 0.00 | 0.00 | 0.00 | 89 | 1018.5 |
| 20260902071119 | 62 | 193 | 2.0 | 7.0 | 0.00 | 0.00 | 0.00 | 89 | 1018.5 |
| 20260902070619 | 62 | 231 | 4.0 | 7.0 | 0.00 | 0.00 | 0.00 | 89 | 1018.5 |
| 20260902070130 | 61 | 204 | 3.0 | 8.0 | 0.00 | 0.00 | 0.00 | 90 | 1018.5 |
| 20260902065615 | 61 | 215 | 3.0 | 8.0 | 0.00 | 0.00 | 0.00 | 90 | 1018.4 |
| 20260902065128 | 61 | 131 | 3.0 | 7.0 | 0.00 | 0.00 | 0.00 | 91 | 1018.4 |
| 20260902064618 | 60 | 238 | 3.0 | 8.0 | 0.00 | 0.00 | 0.00 | 91 | 1018.4 |
| 20260902064148 | 60 | 114 | 3.0 | 8.0 | 0.00 | 0.00 | 0.00 | 91 | 1018.4 |
| 20260902063625 | 60 | 226 | 4.0 | 7.0 | 0.00 | 0.00 | 0.00 | 92 | 1018.4 |
| 20260902063114 | 59 | 208 | 2.0 | 6.0 | 0.00 | 0.00 | 0.00 | 92 | 1018.4 |
| 20260902062612 | 59 | 216 | 4.0 | 7.0 | 0.00 | 0.00 | 0.00 | 92 | 1018.4 |
| 20260902062115 | 59 | 207 | 4.0 | 7.0 | 0.00 | 0.00 | 0.00 | 92 | 1018.4 |
| 20260902061142 | 59 | 212 | 3.0 | 5.0 | 0.00 | 0.00 | 0.00 | 92 | 1018.4 |
| 20260902060634 | 59 | 188 | 2.0 | 6.0 | 0.00 | 0.00 | 0.00 | 92 | 1018.4 |
| 20260902060139 | 59 | 198 | 3.0 | 6.0 | 0.00 | 0.00 | 0.00 | 92 | 1018.3 |
| 20260902055607 | 59 | 171 | 3.0 | 6.0 | 0.00 | 0.00 | 0.00 | 92 | 1018.3 |
| 20260902055137 | 59 | 238 | 3.0 | 6.0 | 0.00 | 0.00 | 0.00 | 92 | 1018.3 |
| 20260902054634 | 58 | 200 | 3.0 | 6.0 | 0.00 | 0.00 | 0.00 | 92 | 1018.4 |
| 20260902054124 | 58 | 215 | 2.0 | 6.0 | 0.00 | 0.00 | 0.00 | 92 | 1018.2 |
| 20260902053615 | 58 | 178 | 3.0 | 5.0 | 0.00 | 0.00 | 0.00 | 92 | 1018.2 |
| 20260902053123 | 58 | 198 | 3.0 | 4.0 | 0.00 | 0.00 | 0.00 | 92 | 1018.3 |
| 20260902052632 | 58 | 240 | 2.0 | 5.0 | 0.00 | 0.00 | 0.00 | 92 | 1018.2 |
| 20260902052200 | 58 | 238 | 2.0 | 5.0 | 0.00 | 0.00 | 0.00 | 92 | 1018.2 |
| 20260902051616 | 58 | 190 | 3.0 | 5.0 | 0.00 | 0.00 | 0.00 | 92 | 1018.2 |
| 20260902051126 | 58 | 204 | 2.0 | 4.0 | 0.00 | 0.00 | 0.00 | 92 | 1018.3 |
| 20260902050610 | 58 | 209 | 3.0 | 4.0 | 0.00 | 0.00 | 0.00 | 92 | 1018.2 |
| 20260902050119 | 58 | 190 | 2.0 | 4.0 | 0.00 | 0.00 | 0.00 | 92 | 1018.2 |
| 20260902045612 | 58 | 211 | 2.0 | 4.0 | 0.00 | 0.00 | 0.00 | 92 | 1018.2 |
| 20260902045127 | 58 | 193 | 2.0 | 5.0 | 0.00 | 0.00 | 0.00 | 92 | 1018.1 |
| 20260902044639 | 58 | 214 | 2.0 | 5.0 | 0.00 | 0.00 | 0.00 | 91 | 1018.2 |
| 20260902044113 | 58 | 219 | 1.0 | 4.0 | 0.00 | 0.00 | 0.00 | 91 | 1018.2 |
| 20260902043625 | 58 | 164 | 2.0 | 4.0 | 0.00 | 0.00 | 0.00 | 92 | 1018.1 |
| 20260902043134 | 58 | 198 | 2.0 | 5.0 | 0.00 | 0.00 | 0.00 | 91 | 1018.2 |
| 20260902042632 | 58 | 210 | 1.0 | 6.0 | 0.00 | 0.00 | 0.00 | 91 | 1018.1 |
| 20260902042109 | 58 | 193 | 2.0 | 6.0 | 0.00 | 0.00 | 0.00 | 91 | 1018.1 |
| 20260902041639 | 58 | 236 | 2.0 | 6.0 | 0.00 | 0.00 | 0.00 | 91 | 1018.1 |
| 20260902041121 | 58 | 200 | 2.0 | 5.0 | 0.00 | 0.00 | 0.00 | 91 | 1018.2 |
| 20260902040639 | 58 | 173 | 2.0 | 5.0 | 0.00 | 0.00 | 0.00 | 91 | 1018.1 |
| 20260902040118 | 58 | 187 | 2.0 | 4.0 | 0.00 | 0.00 | 0.00 | 91 | 1018.1 |
| 20260902035612 | 59 | 175 | 1.0 | 4.0 | 0.00 | 0.00 | 0.00 | 91 | 1018.1 |
| 20260902035108 | 59 | 211 | 2.0 | 5.0 | 0.00 | 0.00 | 0.00 | 91 | 1018.2 |
| 20260902034609 | 59 | 169 | 2.0 | 5.0 | 0.00 | 0.00 | 0.00 | 90 | 1018.2 |
| 20260902034113 | 59 | 157 | 2.0 | 4.0 | 0.00 | 0.00 | 0.00 | 90 | 1018.2 |
| 20260902033627 | 59 | 167 | 2.0 | 4.0 | 0.00 | 0.00 | 0.00 | 90 | 1018.3 |
| 20260902033123 | 59 | 156 | 2.0 | 5.0 | 0.00 | 0.00 | 0.00 | 90 | 1018.3 |
| 20260902032636 | 59 | 186 | 2.0 | 5.0 | 0.00 | 0.00 | 0.00 | 90 | 1018.4 |
| 20260902032151 | 59 | 167 | 2.0 | 4.0 | 0.00 | 0.00 | 0.00 | 90 | 1018.3 |
| 20260902031642 | 59 | 177 | 2.0 | 5.0 | 0.00 | 0.00 | 0.00 | 90 | 1018.3 |
| 20260902031119 | 59 | 199 | 2.0 | 5.0 | 0.00 | 0.00 | 0.00 | 90 | 1018.4 |
| 20260902030609 | 59 | 175 | 2.0 | 4.0 | 0.00 | 0.00 | 0.00 | 90 | 1018.4 |
| 20260902030108 | 59 | 206 | 2.0 | 4.0 | 0.00 | 0.00 | 0.00 | 90 | 1018.4 |
| 20260902025631 | 59 | 225 | 2.0 | 5.0 | 0.00 | 0.00 | 0.00 | 89 | 1018.4 |
| 20260902025133 | 59 | 211 | 2.0 | 5.0 | 0.00 | 0.00 | 0.00 | 89 | 1018.5 |
| 20260902024616 | 59 | 200 | 2.0 | 6.0 | 0.00 | 0.00 | 0.00 | 89 | 1018.5 |
| 20260902024113 | 59 | 217 | 3.0 | 6.0 | 0.00 | 0.00 | 0.00 | 89 | 1018.5 |
| 20260902023624 | 59 | 209 | 2.0 | 4.0 | 0.00 | 0.00 | 0.00 | 89 | 1018.6 |
| 20260902023107 | 59 | 205 | 2.0 | 4.0 | 0.00 | 0.00 | 0.00 | 89 | 1018.6 |
| 20260902022624 | 59 | 205 | 1.0 | 4.0 | 0.00 | 0.00 | 0.00 | 89 | 1018.6 |
| 20260902022139 | 59 | 219 | 2.0 | 3.0 | 0.00 | 0.00 | 0.00 | 89 | 1018.7 |
| 20260902021616 | 59 | 209 | 2.0 | 6.0 | 0.00 | 0.00 | 0.00 | 89 | 1018.7 |
| 20260902021120 | 59 | 232 | 2.0 | 6.0 | 0.00 | 0.00 | 0.00 | 89 | 1018.7 |
| 20260902020641 | 59 | 222 | 2.0 | 4.0 | 0.00 | 0.00 | 0.00 | 89 | 1018.7 |
| 20260902020123 | 59 | 230 | 2.0 | 4.0 | 0.00 | 0.00 | 0.00 | 89 | 1018.7 |
| 20260902015636 | 59 | 200 | 2.0 | 4.0 | 0.00 | 0.00 | 0.00 | 89 | 1018.7 |
| 20260902015123 | 59 | 197 | 2.0 | 4.0 | 0.00 | 0.00 | 0.00 | 89 | 1018.6 |
| 20260902014628 | 59 | 180 | 2.0 | 3.0 | 0.00 | 0.00 | 0.00 | 89 | 1018.7 |
| 20260902014110 | 59 | 163 | 1.0 | 3.0 | 0.00 | 0.00 | 0.00 | 89 | 1018.7 |
| 20260902013614 | 59 | 211 | 1.0 | 4.0 | 0.00 | 0.00 | 0.00 | 89 | 1018.8 |
| 20260902013113 | 59 | 178 | 1.0 | 4.0 | 0.00 | 0.00 | 0.00 | 89 | 1018.8 |
| 20260902012628 | 59 | 178 | 2.0 | 4.0 | 0.00 | 0.00 | 0.00 | 89 | 1018.8 |
| 20260902012130 | 59 | 190 | 1.0 | 4.0 | 0.00 | 0.00 | 0.00 | 89 | 1018.8 |
| 20260902011639 | 59 | 190 | 1.0 | 3.0 | 0.00 | 0.00 | 0.00 | 89 | 1018.8 |
| 20260902011116 | 59 | 190 | 1.0 | 4.0 | 0.00 | 0.00 | 0.00 | 89 | 1018.9 |
| 20260902010625 | 59 | 187 | 2.0 | 4.0 | 0.00 | 0.00 | 0.00 | 89 | 1018.9 |
| 20260902010138 | 59 | 189 | 2.0 | 4.0 | 0.00 | 0.00 | 0.00 | 89 | 1018.9 |
| 20260902005623 | 59 | 180 | 2.0 | 3.0 | 0.00 | 0.00 | 0.00 | 89 | 1018.9 |
| 20260902005112 | 59 | 150 | 1.0 | 4.0 | 0.00 | 0.00 | 0.00 | 89 | 1018.9 |
| 20260902004644 | 59 | 232 | 2.0 | 4.0 | 0.00 | 0.00 | 0.00 | 89 | 1019.0 |
| 20260902004139 | 59 | 183 | 1.0 | 4.0 | 0.00 | 0.00 | 0.00 | 89 | 1018.9 |
| 20260902003621 | 59 | 184 | 1.0 | 4.0 | 0.00 | 0.00 | 0.00 | 89 | 1018.9 |
| 20260902003151 | 58 | 231 | 1.0 | 4.0 | 0.00 | 0.00 | 0.00 | 90 | 1018.9 |
| 20260902002613 | 58 | 206 | 1.0 | 3.0 | 0.00 | 0.00 | 0.00 | 89 | 1019.0 |
| 20260902002117 | 58 | 156 | 1.0 | 4.0 | 0.00 | 0.00 | 0.00 | 90 | 1019.0 |
| 20260902001625 | 58 | 190 | 2.0 | 4.0 | 0.00 | 0.00 | 0.00 | 89 | 1019.0 |
| 20260902001119 | 58 | 213 | 1.0 | 4.0 | 0.00 | 0.00 | 0.00 | 90 | 1019.1 |
| 20260902000640 | 58 | 201 | 1.0 | 4.0 | 0.00 | 0.00 | 0.00 | 90 | 1019.1 |
| 20260902000113 | 58 | 190 | 1.0 | 4.0 | 0.00 | 0.00 | 0.00 | 89 | 1019.1 |
| 20260901235638 | 58 | 182 | 2.0 | 3.0 | 0.00 | 0.00 | 0.00 | 90 | 1019.0 |
| 20260901235124 | 58 | 208 | 1.0 | 2.0 | 0.00 | 0.00 | 0.00 | 89 | 1019.0 |
| 20260901234613 | 58 | 208 | 1.0 | 2.0 | 0.00 | 0.00 | 0.00 | 89 | 1019.0 |
| 20260901234122 | 58 | 208 | 1.0 | 2.0 | 0.00 | 0.00 | 0.00 | 89 | 1019.0 |
| 20260901233624 | 59 | 163 | 1.0 | 4.0 | 0.00 | 0.00 | 0.00 | 89 | 1019.1 |
| 20260901233109 | 58 | 196 | 1.0 | 4.0 | 0.00 | 0.00 | 0.00 | 90 | 1019.2 |
| 20260901232625 | 58 | 209 | 2.0 | 3.0 | 0.00 | 0.00 | 0.00 | 89 | 1019.2 |
| 20260901232134 | 58 | 209 | 1.0 | 3.0 | 0.00 | 0.00 | 0.00 | 90 | 1019.2 |
| 20260901231612 | 58 | 209 | 1.0 | 4.0 | 0.00 | 0.00 | 0.00 | 90 | 1019.3 |
| 20260901231116 | 58 | 178 | 2.0 | 4.0 | 0.00 | 0.00 | 0.00 | 90 | 1019.4 |
| 20260901230632 | 58 | 177 | 1.0 | 3.0 | 0.00 | 0.00 | 0.00 | 90 | 1019.5 |
| 20260901230114 | 58 | 177 | 1.0 | 3.0 | 0.00 | 0.00 | 0.00 | 91 | 1019.5 |
| 20260901225623 | 58 | 177 | 1.0 | 3.0 | 0.00 | 0.00 | 0.00 | 90 | 1019.6 |
| 20260901225134 | 58 | 177 | 1.0 | 2.0 | 0.00 | 0.00 | 0.00 | 91 | 1019.5 |
| 20260901224622 | 58 | 177 | 1.0 | 2.0 | 0.00 | 0.00 | 0.00 | 91 | 1019.5 |
| 20260901224112 | 57 | 177 | 1.0 | 2.0 | 0.00 | 0.00 | 0.00 | 91 | 1019.5 |
| 20260901223611 | 57 | 177 | 1.0 | 2.0 | 0.00 | 0.00 | 0.00 | 91 | 1019.5 |
| 20260901223121 | 57 | 173 | 1.0 | 2.0 | 0.00 | 0.00 | 0.00 | 91 | 1019.5 |
| 20260901222645 | 57 | 169 | 0.0 | 2.0 | 0.00 | 0.00 | 0.00 | 91 | 1019.3 |
| 20260901222118 | 57 | 254 | 0.0 | 1.0 | 0.00 | 0.00 | 0.00 | 91 | 1019.4 |
| 20260901221636 | 57 | 255 | 0.0 | 1.0 | 0.00 | 0.00 | 0.00 | 91 | 1019.4 |
| 20260901221111 | 57 | 254 | 0.0 | 1.0 | 0.00 | 0.00 | 0.00 | 91 | 1019.5 |
| 20260901220620 | 57 | 254 | 0.0 | 0.0 | 0.00 | 0.00 | 0.00 | 90 | 1019.4 |
| 20260901220131 | 57 | 255 | 0.0 | 0.0 | 0.00 | 0.00 | 0.00 | 90 | 1019.4 |
| 20260901215634 | 58 | 255 | 0.0 | 0.0 | 0.00 | 0.08 | 0.00 | 90 | 1019.5 |
| 20260901215117 | 58 | 254 | 0.0 | 0.0 | 0.00 | 0.08 | 0.00 | 90 | 1019.4 |
| 20260901214616 | 58 | 255 | 0.0 | 1.0 | 0.00 | 0.08 | 0.00 | 89 | 1019.5 |
| 20260901214135 | 58 | 254 | 0.0 | 1.0 | 0.00 | 0.08 | 0.00 | 89 | 1019.4 |
| 20260901213652 | 58 | 254 | 1.0 | 1.0 | 0.00 | 0.08 | 0.00 | 89 | 1019.4 |
| 20260901213111 | 58 | 254 | 1.0 | 1.0 | 0.00 | 0.08 | 0.00 | 89 | 1019.4 |
| 20260901212631 | 58 | 254 | 0.0 | 1.0 | 0.00 | 0.08 | 0.00 | 89 | 1019.3 |
| 20260901212118 | 58 | 255 | 0.0 | 1.0 | 0.00 | 0.08 | 0.00 | 89 | 1019.3 |
| 20260901211618 | 58 | 255 | 0.0 | 1.0 | 0.00 | 0.08 | 0.00 | 89 | 1019.4 |
| 20260901211146 | 58 | 255 | 0.0 | 1.0 | 0.00 | 0.08 | 0.00 | 90 | 1019.8 |
| 20260901210632 | 58 | 254 | 0.0 | 0.0 | 0.00 | 0.08 | 0.00 | 89 | 1019.8 |
| 20260901210108 | 58 | 255 | 0.0 | 0.0 | 0.00 | 0.08 | 0.00 | 89 | 1019.9 |
| 20260901205624 | 58 | 255 | 0.0 | 1.0 | 0.00 | 0.08 | 0.00 | 89 | 1019.9 |
| 20260901205130 | 58 | 254 | 0.0 | 2.0 | 0.00 | 0.08 | 0.00 | 89 | 1019.9 |
| 20260901204625 | 58 | 254 | 0.0 | 2.0 | 0.00 | 0.08 | 0.00 | 89 | 1020.0 |
| 20260901204116 | 58 | 255 | 0.0 | 1.0 | 0.00 | 0.08 | 0.00 | 90 | 1020.0 |
| 20260901203615 | 58 | 255 | 0.0 | 1.0 | 0.00 | 0.08 | 0.00 | 90 | 1019.9 |
| 20260901203123 | 58 | 255 | 0.0 | 1.0 | 0.00 | 0.08 | 0.00 | 90 | 1019.9 |
| 20260901202611 | 58 | 255 | 0.0 | 1.0 | 0.00 | 0.08 | 0.00 | 90 | 1019.9 |
| 20260901202117 | 57 | 255 | 0.0 | 1.0 | 0.00 | 0.08 | 0.00 | 90 | 1020.0 |
| 20260901201630 | 57 | 254 | 0.0 | 0.0 | 0.00 | 0.08 | 0.00 | 90 | 1020.0 |
| 20260901201115 | 57 | 255 | 0.0 | 0.0 | 0.00 | 0.08 | 0.00 | 90 | 1019.9 |
| 20260901200614 | 57 | 254 | 0.0 | 0.0 | 0.00 | 0.08 | 0.00 | 90 | 1019.8 |
| 20260901200124 | 57 | 254 | 0.0 | 0.0 | 0.00 | 0.08 | 0.00 | 89 | 1019.8 |
| 20260901195640 | 57 | 255 | 0.0 | 0.0 | 0.00 | 0.08 | 0.00 | 89 | 1019.8 |
| 20260901195128 | 57 | 254 | 0.0 | 0.0 | 0.00 | 0.08 | 0.00 | 89 | 1019.8 |
| 20260901194647 | 57 | 254 | 0.0 | 1.0 | 0.00 | 0.08 | 0.00 | 89 | 1019.8 |
| 20260901194134 | 58 | 254 | 0.0 | 1.0 | 0.00 | 0.08 | 0.00 | 89 | 1019.8 |
| 20260901193646 | 58 | 255 | 0.0 | 1.0 | 0.00 | 0.08 | 0.00 | 88 | 1019.8 |
| 20260901193119 | 58 | 255 | 0.0 | 1.0 | 0.00 | 0.08 | 0.00 | 88 | 1019.6 |
| 20260901192627 | 58 | 255 | 0.0 | 1.0 | 0.00 | 0.08 | 0.00 | 88 | 1019.6 |
| 20260901192127 | 58 | 255 | 0.0 | 0.0 | 0.00 | 0.08 | 0.00 | 87 | 1019.5 |
| 20260901191626 | 58 | 254 | 0.0 | 0.0 | 0.00 | 0.08 | 0.00 | 86 | 1019.5 |
| 20260901191105 | 59 | 255 | 0.0 | 0.0 | 0.00 | 0.08 | 0.00 | 86 | 1019.5 |
| 20260901190642 | 59 | 255 | 0.0 | 0.0 | 0.00 | 0.08 | 0.00 | 86 | 1019.5 |
| 20260901190124 | 59 | 254 | 0.0 | 0.0 | 0.00 | 0.08 | 0.00 | 85 | 1019.4 |
| 20260901185617 | 59 | 254 | 0.0 | 0.0 | 0.00 | 0.08 | 0.00 | 84 | 1019.4 |
| 20260901185114 | 59 | 254 | 0.0 | 1.0 | 0.00 | 0.08 | 0.00 | 83 | 1019.4 |
| 20260901184622 | 60 | 255 | 0.0 | 1.0 | 0.00 | 0.08 | 0.00 | 83 | 1019.4 |
| 20260901184126 | 60 | 255 | 0.0 | 2.0 | 0.00 | 0.08 | 0.00 | 82 | 1019.4 |
| 20260901183623 | 60 | 255 | 0.0 | 2.0 | 0.00 | 0.08 | 0.00 | 81 | 1019.5 |
| 20260901183112 | 61 | 346 | 0.0 | 1.0 | 0.00 | 0.08 | 0.00 | 81 | 1019.5 |
| 20260901182618 | 61 | 346 | 0.0 | 1.0 | 0.00 | 0.08 | 0.00 | 80 | 1019.4 |
| 20260901182131 | 61 | 346 | 0.0 | 1.0 | 0.00 | 0.08 | 0.00 | 79 | 1019.5 |
| 20260901181639 | 62 | 346 | 0.0 | 2.0 | 0.00 | 0.08 | 0.00 | 78 | 1019.4 |
| 20260901181109 | 62 | 346 | 1.0 | 2.0 | 0.00 | 0.08 | 0.00 | 77 | 1019.4 |
| 20260901180611 | 62 | 252 | 0.0 | 3.0 | 0.00 | 0.08 | 0.00 | 76 | 1019.4 |
| 20260901180126 | 63 | 333 | 1.0 | 3.0 | 0.00 | 0.08 | 0.00 | 77 | 1019.4 |
| 20260901175614 | 63 | 273 | 0.0 | 1.0 | 0.00 | 0.08 | 0.00 | 76 | 1019.4 |
| 20260901175109 | 63 | 273 | 0.0 | 2.0 | 0.00 | 0.08 | 0.00 | 74 | 1019.5 |
| 20260901174627 | 64 | 273 | 1.0 | 4.0 | 0.00 | 0.08 | 0.00 | 72 | 1019.5 |
| 20260901174119 | 64 | 244 | 1.0 | 5.0 | 0.00 | 0.08 | 0.00 | 72 | 1019.6 |
| 20260901173631 | 64 | 299 | 1.0 | 7.0 | 0.00 | 0.08 | 0.00 | 71 | 1019.6 |
| 20260901173120 | 64 | 270 | 2.0 | 7.0 | 0.00 | 0.08 | 0.00 | 72 | 1019.7 |
| 20260901172624 | 65 | 301 | 1.0 | 4.0 | 0.00 | 0.08 | 0.00 | 71 | 1019.7 |
| 20260901172111 | 65 | 316 | 2.0 | 4.0 | 0.00 | 0.08 | 0.00 | 70 | 1019.6 |
| 20260901171625 | 65 | 290 | 1.0 | 4.0 | 0.00 | 0.08 | 0.00 | 70 | 1019.6 |
| 20260901171136 | 65 | 287 | 1.0 | 4.0 | 0.00 | 0.08 | 0.00 | 70 | 1019.7 |
| 20260901170631 | 65 | 286 | 1.0 | 5.0 | 0.00 | 0.08 | 0.00 | 70 | 1019.8 |
| 20260901170109 | 66 | 286 | 1.0 | 6.0 | 0.00 | 0.08 | 0.00 | 68 | 1019.7 |
| 20260901165643 | 66 | 239 | 1.0 | 5.0 | 0.00 | 0.08 | 0.00 | 66 | 1019.7 |
| 20260901165130 | 66 | 311 | 2.0 | 5.0 | 0.00 | 0.08 | 0.00 | 66 | 1019.8 |
| 20260901164616 | 67 | 184 | 2.0 | 7.0 | 0.00 | 0.08 | 0.00 | 66 | 1019.7 |
| 20260901164126 | 67 | 55 | 1.0 | 7.0 | 0.00 | 0.08 | 0.00 | 66 | 1019.7 |
| 20260901163633 | 67 | 198 | 2.0 | 6.0 | 0.00 | 0.08 | 0.00 | 65 | 1019.6 |
| 20260901163127 | 67 | 290 | 2.0 | 6.0 | 0.00 | 0.08 | 0.00 | 67 | 1019.6 |
| 20260901162616 | 67 | 278 | 2.0 | 6.0 | 0.00 | 0.08 | 0.00 | 67 | 1019.6 |
| 20260901162121 | 67 | 285 | 2.0 | 5.0 | 0.00 | 0.08 | 0.00 | 66 | 1019.6 |
| 20260901161634 | 67 | 294 | 1.0 | 6.0 | 0.00 | 0.08 | 0.00 | 66 | 1019.6 |
| 20260901161114 | 67 | 226 | 2.0 | 8.0 | 0.00 | 0.08 | 0.00 | 66 | 1019.6 |
| 20260901160617 | 67 | 236 | 4.0 | 8.0 | 0.00 | 0.08 | 0.00 | 64 | 1019.6 |
| 20260901160126 | 68 | 300 | 2.0 | 6.0 | 0.00 | 0.08 | 0.00 | 64 | 1019.5 |
| 20260901155632 | 68 | 221 | 2.0 | 6.0 | 0.00 | 0.08 | 0.00 | 64 | 1019.4 |
| 20260901155122 | 68 | 289 | 2.0 | 7.0 | 0.00 | 0.08 | 0.00 | 63 | 1019.4 |
| 20260901154616 | 68 | 256 | 2.0 | 7.0 | 0.00 | 0.08 | 0.00 | 63 | 1019.4 |
| 20260901154122 | 68 | 261 | 1.0 | 7.0 | 0.00 | 0.08 | 0.00 | 62 | 1019.4 |
| 20260901153656 | 68 | 266 | 3.0 | 7.0 | 0.00 | 0.08 | 0.00 | 64 | 1019.4 |
| 20260901153109 | 68 | 238 | 2.0 | 5.0 | 0.00 | 0.08 | 0.00 | 62 | 1019.4 |
| 20260901152624 | 68 | 231 | 2.0 | 5.0 | 0.00 | 0.08 | 0.00 | 63 | 1019.3 |
| 20260901152118 | 68 | 269 | 1.0 | 6.0 | 0.00 | 0.08 | 0.00 | 65 | 1019.4 |
| 20260901151611 | 68 | 270 | 3.0 | 7.0 | 0.00 | 0.08 | 0.00 | 63 | 1019.3 |
| 20260901151123 | 68 | 295 | 2.0 | 7.0 | 0.00 | 0.08 | 0.00 | 61 | 1019.3 |
| 20260901150610 | 68 | 196 | 2.0 | 6.0 | 0.00 | 0.08 | 0.00 | 62 | 1019.3 |